DW3588 Weather Reports


Display with metric or nautical units.
time (UTC)temp
F
wind
direction
speed
MPH
gust
MPH
rain 1hr
in
rain 24hr
in
rain mn
in
humidity
%
barometer
mb
20260504180035 68 130 2.0 4.0 0.00 0.00 0.00 49 1014.3
20260504175313 68 5 2.0 4.0 0.00 0.00 0.00 48 1014.2
20260504174813 68 67 3.0 9.0 0.00 0.00 0.00 48 1014.3
20260504174314 68 61 3.0 9.0 0.00 0.00 0.00 48 1014.2
20260504173809 68 71 2.0 8.0 0.00 0.00 0.00 49 1014.3
20260504173309 67 28 3.0 8.0 0.00 0.00 0.00 50 1014.2
20260504172808 66 49 3.0 8.0 0.00 0.00 0.00 51 1014.2
20260504172305 66 37 3.0 8.0 0.00 0.00 0.00 50 1014.4
20260504171805 66 65 3.0 8.0 0.00 0.00 0.00 51 1014.3
20260504171301 66 15 3.0 8.0 0.00 0.00 0.00 52 1014.3
20260504171254 67 13 3.0 8.0 0.00 0.00 0.00 52 1014.1
20260504170301 66 44 4.0 8.0 0.00 0.00 0.00 51 1014.1
20260504160250 62 252 5.0 11.0 0.00 0.00 0.00 61 1013.8
20260504150742 56 222 3.0 8.0 0.00 0.00 0.00 75 1014.1
20260504150239 55 221 2.0 5.0 0.00 0.00 0.00 76 1014.1
20260504141221 54 229 1.0 3.0 0.00 0.00 0.00 77 1014.1
20260504140720 54 229 0.0 3.0 0.00 0.00 0.00 76 1014.0
20260504140213 54 229 0.0 1.0 0.00 0.00 0.00 76 1014.1
20260504130701 55 241 1.0 5.0 0.00 0.00 0.00 74 1013.6
20260504130159 55 242 2.0 5.0 0.00 0.00 0.00 74 1013.5
20260504120145 56 215 5.0 9.0 0.00 0.00 0.00 73 1013.4
20260504110628 56 235 4.0 9.0 0.00 0.00 0.00 74 1013.6
20260504110126 56 240 4.0 9.0 0.00 0.00 0.00 74 1013.6
20260504100120 56 243 2.0 5.0 0.00 0.00 0.00 72 1013.7
20260504090106 56 240 4.0 9.0 0.00 0.00 0.00 72 1013.8
20260504081800 56 265 2.0 7.0 0.00 0.00 0.00 73 1014.0
20260504081040 56 268 2.0 7.0 0.00 0.00 0.00 73 1014.0
20260504080540 56 272 2.0 6.0 0.00 0.00 0.00 73 1014.0
20260504050505 57 239 3.0 9.0 0.00 0.00 0.00 64 1013.0
20260504050007 57 260 4.0 9.0 0.00 0.00 0.00 65 1013.0
20260504045500 57 273 4.0 9.0 0.00 0.00 0.00 65 1012.9
20260504045001 57 273 4.0 9.0 0.00 0.00 0.00 65 1012.8
20260504044501 57 261 4.0 8.0 0.00 0.00 0.00 66 1012.8
20260504043957 57 247 5.0 10.0 0.00 0.00 0.00 66 1012.8
20260504043457 57 267 5.0 10.0 0.00 0.00 0.00 67 1012.7
20260504042958 57 275 6.0 13.0 0.00 0.00 0.00 67 1012.7
20260504042458 57 252 5.0 16.0 0.00 0.00 0.00 68 1012.6
20260504041958 58 272 6.0 16.0 0.00 0.00 0.00 67 1012.6
20260504041715 58 230 8.0 16.0 0.00 0.00 0.00 67 1012.5
20260504040958 58 231 8.0 16.0 0.00 0.00 0.00 67 1012.4
20260504040458 58 231 8.0 17.0 0.00 0.00 0.00 67 1012.3
20260504035957 58 276 9.0 17.0 0.00 0.00 0.00 66 1012.3
20260504035455 58 233 9.0 15.0 0.00 0.00 0.00 66 1012.2
20260504034956 58 259 9.0 14.0 0.00 0.00 0.00 66 1012.2
20260504034454 58 271 7.0 14.0 0.00 0.00 0.00 67 1012.2
20260504033952 58 221 7.0 16.0 0.00 0.00 0.00 66 1012.1
20260504033451 59 280 7.0 16.0 0.00 0.00 0.00 66 1012.2
20260504032948 59 264 8.0 15.0 0.00 0.00 0.00 66 1012.2
20260504032448 59 227 7.0 14.0 0.00 0.00 0.00 66 1012.1
20260504031948 59 272 6.0 13.0 0.00 0.00 0.00 66 1012.1
20260504031446 59 268 7.0 15.0 0.00 0.00 0.00 65 1012.1
20260504030946 60 267 8.0 15.0 0.00 0.00 0.00 65 1012.0
20260504030923 60 294 9.0 17.0 0.00 0.00 0.00 64 1012.0
20260504025946 60 296 9.0 17.0 0.00 0.00 0.00 63 1011.9
20260504025446 60 275 9.0 15.0 0.00 0.00 0.00 63 1011.9
20260504025424 60 260 9.0 16.0 0.00 0.00 0.00 63 1011.7
20260504024447 61 254 9.0 16.0 0.00 0.00 0.00 62 1011.7
20260504023946 61 269 10.0 18.0 0.00 0.00 0.00 62 1011.5
20260504023428 61 262 9.0 18.0 0.00 0.00 0.00 62 1011.5
20260504022927 61 243 8.0 15.0 0.00 0.00 0.00 61 1011.4
20260504022427 62 243 8.0 17.0 0.00 0.00 0.00 61 1011.5
20260504021928 62 224 9.0 17.0 0.00 0.00 0.00 60 1011.4
20260504021428 62 297 9.0 15.0 0.00 0.00 0.00 60 1011.4
20260504020922 63 283 9.0 15.0 0.00 0.00 0.00 59 1011.4
20260504020422 63 309 9.0 16.0 0.00 0.00 0.00 59 1011.3
20260504015922 63 249 9.0 16.0 0.00 0.00 0.00 58 1011.3
20260504015645 64 257 9.0 16.0 0.00 0.00 0.00 58 1011.3
20260504015145 65 242 8.0 16.0 0.00 0.00 0.00 57 1011.2
20260504014420 65 257 7.0 13.0 0.00 0.00 0.00 57 1011.3
20260504014138 65 232 7.0 16.0 0.00 0.00 0.00 56 1011.3
20260504013416 65 236 8.0 16.0 0.00 0.00 0.00 55 1011.3
20260504012914 66 222 9.0 17.0 0.00 0.00 0.00 54 1011.4
20260504012411 66 267 7.0 17.0 0.00 0.00 0.00 54 1011.4
20260504011909 66 252 7.0 12.0 0.00 0.00 0.00 54 1011.3
20260504011407 66 257 7.0 14.0 0.00 0.00 0.00 54 1011.3
20260504011127 67 244 8.0 14.0 0.00 0.00 0.00 55 1011.4
20260504010405 67 284 8.0 16.0 0.00 0.00 0.00 55 1011.4
20260504005905 67 228 7.0 16.0 0.00 0.00 0.00 55 1011.3
20260504005625 66 244 7.0 16.0 0.00 0.00 0.00 55 1011.3
20260504004904 66 228 8.0 16.0 0.00 0.00 0.00 55 1011.3
20260504004402 66 223 8.0 16.0 0.00 0.00 0.00 55 1011.3
20260504003901 66 266 8.0 16.0 0.00 0.00 0.00 55 1011.3
20260504003624 67 235 8.0 15.0 0.00 0.00 0.00 54 1011.3
20260504002901 68 254 8.0 15.0 0.00 0.00 0.00 53 1011.2
20260504002627 68 277 8.0 15.0 0.00 0.00 0.00 53 1011.1
20260504002120 68 266 7.0 16.0 0.00 0.00 0.00 54 1011.1
20260504001358 68 277 8.0 18.0 0.00 0.00 0.00 54 1011.1
20260504000858 69 264 9.0 18.0 0.00 0.00 0.00 52 1011.1
20260504000618 69 240 9.0 17.0 0.00 0.00 0.00 52 1011.1
20260503235856 69 248 7.0 17.0 0.00 0.00 0.00 53 1011.0
20260503235356 69 288 7.0 13.0 0.00 0.00 0.00 53 1010.9
20260503234854 69 242 7.0 14.0 0.00 0.00 0.00 51 1011.0
20260503234353 70 218 7.0 14.0 0.00 0.00 0.00 50 1010.9
20260503233851 70 236 7.0 14.0 0.00 0.00 0.00 51 1010.9
20260503233606 70 280 6.0 14.0 0.00 0.00 0.00 51 1010.8
20260503233111 69 200 6.0 12.0 0.00 0.00 0.00 52 1010.8
20260503232350 69 240 6.0 12.0 0.00 0.00 0.00 52 1010.8
20260503232108 69 226 6.0 13.0 0.00 0.00 0.00 53 1010.9
20260503231348 69 257 6.0 15.0 0.00 0.00 0.00 52 1010.9
20260503230846 70 178 6.0 15.0 0.00 0.00 0.00 51 1010.9
20260503230344 70 281 6.0 13.0 0.00 0.00 0.00 51 1010.8
20260503225843 71 208 7.0 15.0 0.00 0.00 0.00 49 1010.8
20260503225830 71 223 7.0 15.0 0.00 0.00 0.00 50 1010.9
20260503224833 71 291 6.0 13.0 0.00 0.00 0.00 51 1010.9
20260503224333 70 235 6.0 13.0 0.00 0.00 0.00 51 1011.0
20260503223836 70 223 6.0 12.0 0.00 0.00 0.00 51 1011.1
20260503223329 70 252 6.0 13.0 0.00 0.00 0.00 52 1011.1
20260503223049 69 236 5.0 13.0 0.00 0.00 0.00 52 1011.1
20260503222329 70 243 5.0 12.0 0.00 0.00 0.00 51 1011.2
20260503221827 69 228 6.0 12.0 0.00 0.00 0.00 52 1011.2
20260503221546 69 214 6.0 13.0 0.00 0.00 0.00 52 1011.2
20260503220826 70 238 6.0 13.0 0.00 0.00 0.00 51 1011.4
20260503220324 71 207 6.0 13.0 0.00 0.00 0.00 51 1011.2
20260503220041 70 242 6.0 13.0 0.00 0.00 0.00 53 1011.3
20260503215543 69 189 7.0 11.0 0.00 0.00 0.00 52 1011.5
20260503214815 70 247 6.0 12.0 0.00 0.00 0.00 51 1011.6
20260503214314 70 280 6.0 12.0 0.00 0.00 0.00 50 1011.6
20260503213813 71 244 6.0 12.0 0.00 0.00 0.00 50 1011.5
20260503213313 70 223 6.0 14.0 0.00 0.00 0.00 50 1011.5
20260503213028 71 210 5.0 14.0 0.00 0.00 0.00 50 1011.6
20260503212307 71 229 5.0 11.0 0.00 0.00 0.00 49 1011.4
20260503212031 71 216 6.0 12.0 0.00 0.00 0.00 49 1011.4
20260503211308 69 232 7.0 12.0 0.00 0.00 0.00 51 1011.5
20260503210807 69 242 7.0 12.0 0.00 0.00 0.00 51 1011.5
20260503210304 70 248 7.0 12.0 0.00 0.00 0.00 50 1011.6
20260503205807 70 236 6.0 11.0 0.00 0.00 0.00 50 1011.6
20260503205741 71 319 6.0 11.0 0.00 0.00 0.00 50 1011.5
20260503204803 72 252 7.0 14.0 0.00 0.00 0.00 49 1011.4
20260503204302 73 206 7.0 14.0 0.00 0.00 0.00 48 1011.4
20260503203801 73 174 7.0 14.0 0.00 0.00 0.00 48 1011.3
20260503203300 71 241 7.0 14.0 0.00 0.00 0.00 49 1011.4
20260503202800 71 248 6.0 13.0 0.00 0.00 0.00 49 1011.5
20260503202251 72 222 6.0 13.0 0.00 0.00 0.00 49 1011.5
20260503201751 73 238 6.0 14.0 0.00 0.00 0.00 48 1011.5
20260503201251 74 225 6.0 14.0 0.00 0.00 0.00 48 1011.5
20260503200751 73 216 6.0 13.0 0.00 0.00 0.00 49 1011.6
20260503200251 71 234 6.0 14.0 0.00 0.00 0.00 51 1011.5
20260503195750 71 267 6.0 16.0 0.00 0.00 0.00 50 1011.7
20260503195248 71 267 4.0 16.0 0.00 0.00 0.00 50 1011.5
20260503194750 73 186 5.0 12.0 0.00 0.00 0.00 49 1011.8
20260503194248 72 281 5.0 12.0 0.00 0.00 0.00 50 1011.8
20260503193746 70 238 6.0 11.0 0.00 0.00 0.00 52 1011.9
20260503193243 71 259 7.0 12.0 0.00 0.00 0.00 51 1012.0
20260503192740 71 247 7.0 15.0 0.00 0.00 0.00 51 1011.9
20260503192239 71 198 7.0 15.0 0.00 0.00 0.00 50 1011.9
20260503191738 71 232 7.0 13.0 0.00 0.00 0.00 52 1011.9
20260503191234 71 252 8.0 13.0 0.00 0.00 0.00 51 1012.0
20260503190731 71 233 8.0 13.0 0.00 0.00 0.00 52 1012.0
20260503190229 70 234 8.0 16.0 0.00 0.00 0.00 51 1012.0
20260503185728 70 220 8.0 16.0 0.00 0.00 0.00 53 1012.1
20260503185224 71 229 7.0 14.0 0.00 0.00 0.00 51 1012.0
20260503184721 71 248 5.0 13.0 0.00 0.00 0.00 52 1011.9
20260503184221 70 236 5.0 13.0 0.00 0.00 0.00 52 1012.0
20260503183722 69 225 6.0 13.0 0.00 0.00 0.00 55 1012.0
20260503183221 69 275 7.0 14.0 0.00 0.00 0.00 54 1012.1
20260503182716 69 203 7.0 14.0 0.00 0.00 0.00 53 1012.1
20260503182215 69 265 7.0 15.0 0.00 0.00 0.00 54 1012.1
20260503181711 69 248 7.0 15.0 0.00 0.00 0.00 55 1012.1
20260503181211 68 281 6.0 13.0 0.00 0.00 0.00 56 1012.1
20260503180712 68 272 6.0 13.0 0.00 0.00 0.00 57 1012.0
20260503180438 67 246 6.0 13.0 0.00 0.00 0.00 58 1012.1